HODOYOSHI-3

Last updated on Sun Apr 12 2026 00:02:35 GMT+0000 (Coordinated Universal Time)

1 40015U 14033F 26101.42395745 .00001149 00000+0 13888-3 0 9995 2 40015 97.6353 267.1816 0032168 212.3438 147.5806 14.85240722637719
UTC large
Height (km)
Speed (km/s)
/
Latitude / Longitude
Inclination (degrees)
Orbital Period (minutes)
Azimuth
Elevation
Range (km)
Doppler Factor

Next 0 passes for location: London (51.5072 / 0.1276)

Sorry there are no passes over London.
HODOYOSHI-3